Disclaimer

Please do not use the information listed here in-flight or in-navigation, as they are not provided to us by the airports but are provided by volunteers, so they might be outdated.

Search


Regions


Airport information page

Radio informations:
Tower (TWR) - 118.2 MHz
Ground (GND) - 121.65 MHz
DAMMAM APP - 126.3 MHz
DAMMAM ARR/DEP - 125.0 MHz

Airport informations:
Latitude: 26° 28' 16.18" N
Longitude: 049° 47' 52.40" E
Elevation: 72 feet - 22 meters
Operating hours: 24 hour operations
Operating agency: Civil government, landing fees and diplomatic clearance may be required
Timezone: UTC+3
Fuel: Jet A1, without icing nhibitor.

Runway information:
16R/34L - 13124 x 197 feet< - >4000 x 60 meters
16L/34R - 13124 x 197 feet< - >4000 x 60 meters

Recent METARs:
OEDF 171000Z 32024KT 0050 DS VV/// 20/M02 Q1015 NOSIG
OEDF 171000Z 32024KT 0050 DS VV/// 20/M02 Q1015 NOSIG
OEDF 171100Z 32025KT 0050 DS VV/// 21/M02 Q1015 NOSIG

Airport on the map: